Location: Limoges
(45.8354°N, 1.2645°E)
Time: 11:46:09
(UTC+01:00)

Transit 2A - Visible Passes

Search period start: 22 February 2024 00:00
Search period end: 03 March 2024 00:00
Orbit: 600 x 953 km, 66.7° (Epoch: 22 February)

Date Brightness Start Highest point End Pass type
(mag) Time Alt. Az. Time Alt. Az. Time Alt. Az.
22 Feb 8.1 04:27:15 18° NNE 04:28:17 19° NE 04:31:53 10° E visible
22 Feb 5.8 06:07:42 14° NW 06:11:54 82° WSW 06:17:13 10° SSE visible
23 Feb 8.6 03:53:39 14° NE 03:53:39 14° NE 03:55:47 10° ENE visible
23 Feb 6.1 05:34:07 26° NNW 05:36:53 69° NE 05:42:09 10° SE visible
23 Feb 7.4 07:16:15 10° WNW 07:19:34 18° WSW 07:23:04 10° SSW visible
23 Feb 7.2 20:15:05 10° S 20:16:40 19° SSE 20:16:40 19° SSE visible
24 Feb 6.7 05:00:41 40° NNE 05:01:49 48° NE 05:06:54 10° SE visible
24 Feb 6.9 06:41:09 12° WNW 06:44:43 26° WSW 06:49:07 10° SSW visible
24 Feb 6.9 19:40:59 10° SSE 19:44:00 19° ESE 19:44:05 19° ESE visible
24 Feb 7.3 21:22:27 10° SW 21:24:37 27° WSW 21:24:37 27° WSW visible
25 Feb 7.4 04:27:26 33° ENE 04:27:26 33° ENE 04:31:27 10° ESE visible
25 Feb 6.4 06:07:54 28° WNW 06:09:49 38° WSW 06:14:46 10° S visible
25 Feb 7.4 19:07:39 10° SE 19:09:14 12° ESE 19:10:48 10° E visible
25 Feb 5.5 20:47:16 10° SW 20:51:38 77° WNW 20:51:57 72° N visible
26 Feb 8.4 03:54:22 16° E 03:54:22 16° E 03:55:48 10° E visible
26 Feb 5.9 05:34:52 57° WSW 05:34:53 57° WSW 05:40:08 10° SSE visible
26 Feb 5.4 20:12:18 10° SSW 20:16:38 69° ESE 20:19:09 24° NE visible
26 Feb 8.1 21:57:08 10° W 21:59:40 18° NW 21:59:40 18° NW visible
27 Feb 6.9 05:02:01 37° SSE 05:02:01 37° SSE 05:05:17 10° SSE visible
27 Feb 7.7 06:42:32 12° WSW 06:42:32 12° WSW 06:44:20 10° SW visible
27 Feb 5.8 19:37:33 10° S 19:41:42 44° ESE 19:45:50 10° NE visible
27 Feb 7.6 21:21:21 10° W 21:24:56 25° NW 21:26:43 19° N visible
28 Feb 8.3 04:29:21 15° SE 04:29:21 15° SE 04:30:13 10° SE visible
28 Feb 7.8 06:09:53 14° SW 06:09:53 14° SW 06:11:10 10° SSW visible
28 Feb 6.5 19:03:05 10° S 19:06:48 28° ESE 19:10:33 10° NE visible
28 Feb 7.1 20:45:47 10° WSW 20:49:45 34° NW 20:53:34 11° NNE visible
29 Feb 6.3 20:10:25 10° SW 20:14:38 50° NW 20:18:55 10° NNE visible
29 Feb 8.6 21:57:47 10° NW 21:58:50 11° NNW 21:59:54 10° NNW visible
01 Mar 5.7 19:35:14 10° SW 19:39:35 77° NW 19:43:58 10° NNE visible
01 Mar 8.4 21:21:08 10° WNW 21:23:27 14° NW 21:25:49 10° N visible
02 Mar 8.1 20:45:04 10° W 20:48:08 18° NW 20:51:16 10° N visible
